Find Starlink 34252

NORAD ID: 64330 Int'l Des: 2025-124 Owner: SPXS Country: US Constellation: starlink operational
LEOCIRCULAR

当前视图

正在加载3D地球...

About Starlink 34252

Starlink 34252 (NORAD 64330) is a starlink constellation satellite (v2 mini) launched Jun 10, 2025 by SPXS of US. It operates in LEO, CIRCULAR orbit with a mass of 575.00 kg.

即将过境

Passes for default location (London). Set your location on the main map for personalized predictions.

高度历史

Loading altitude history...

两行轨道根数

1 64330U 25124P 26236.76710980 .00011864 00000-0 43979-3 0 9992
2 64330 43.0031 252.6808 0003365 268.9978 91.0488 15.27591461 67482
Epoch: Aug 24, 2026 • Age: 16 hours

当前状态

高度 482.7 km
远地点 / 近地点 N/A
速度 7.63 km/s
星下点 4.65°N, 72.75°W
发射日期 Jun 10, 2025
运行时间 1.2 years
类型 internet

技术详情

分类 Payload
质量 575.00 kg
干质量 530.00 kg
总质量 575.00 kg
长度 0.30 m
直径 4.10 m
跨度 29.00 m
形状 Box + pan
制造商 SPXS
平台类型 Starlink V2MO
阶段状态 In Orbit
所有者/国家 SPXS/US

Most Searched